KLM789 EHAM-TNCM

Flight info

Callsign KLM789
Flight time N/A
Altitude 36000
Route BERGI L60 PENIL M144 BAGSO DCT LIMRI/M082F360 DCT 51N020W 49N030W 44N040W 34N050W 27N056W 22N060W DCT OBIKE/N0467F360 L335 TRNKY
Aircraft MD11/H-SDE1E2E3FGHIJ2J3J4J5M1RWXY/LB1D1

Departure

Time 2026-04-30 09:55
Airport Amsterdam Airport Schiphol (EHAM)

Arrival

Time N/A
Airport Princess Juliana International Airport (TNCM)
Time Latitude Longitude Altitude Speed Heading
2026-04-30 09:13 52.31320 4.76665 7 ft 0 kts 123°
2026-04-30 09:38 52.31321 4.76664 7 ft 2 kts 123°
2026-04-30 09:38 52.31334 4.76630 8 ft 4 kts 121°
2026-04-30 09:38 52.31347 4.76592 8 ft 4 kts 112°
2026-04-30 09:39 52.31353 4.76552 7 ft 4 kts 70°
2026-04-30 09:39 52.31348 4.76537 8 ft 2 kts 34°
2026-04-30 09:39 52.31369 4.76561 8 ft 3 kts 33°
2026-04-30 09:39 52.31371 4.76563 8 ft 5 kts 33°
2026-04-30 09:45 52.31389 4.76582 6 ft 6 kts 33°
2026-04-30 09:46 52.31428 4.76621 6 ft 7 kts 32°
2026-04-30 09:46 52.31466 4.76692 6 ft 10 kts 68°
2026-04-30 09:46 52.31475 4.76802 6 ft 9 kts 87°
2026-04-30 09:46 52.31478 4.76904 6 ft 9 kts 87°
2026-04-30 09:47 52.31481 4.76990 6 ft 7 kts 87°
2026-04-30 09:47 52.31484 4.77079 6 ft 10 kts 87°
2026-04-30 09:47 52.31505 4.77183 6 ft 8 kts 37°
2026-04-30 09:47 52.31549 4.77218 8 ft 7 kts 39°
2026-04-30 09:48 52.31582 4.77301 6 ft 11 kts 59°
2026-04-30 09:48 52.31627 4.77421 6 ft 14 kts 59°
2026-04-30 09:48 52.31680 4.77562 6 ft 14 kts 58°
2026-04-30 09:48 52.31737 4.77664 7 ft 11 kts 29°
2026-04-30 09:49 52.31808 4.77691 5 ft 10 kts
2026-04-30 09:49 52.31868 4.77696 6 ft 8 kts
2026-04-30 09:49 52.31923 4.77700 6 ft 7 kts
2026-04-30 09:49 52.31964 4.77708 6 ft 5 kts 10°
2026-04-30 09:50 52.31991 4.77721 6 ft 2 kts 21°
2026-04-30 09:50 52.31994 4.77723 6 ft 0 kts 23°
2026-04-30 09:51 52.32002 4.77730 6 ft 3 kts 26°
2026-04-30 09:51 52.32017 4.77744 7 ft 2 kts 31°
2026-04-30 09:51 52.32027 4.77755 6 ft 3 kts 35°
2026-04-30 09:52 52.32054 4.77792 6 ft 7 kts 40°
2026-04-30 09:52 52.32069 4.77814 6 ft 0 kts 41°
2026-04-30 09:53 52.32075 4.77823 6 ft 3 kts 41°
2026-04-30 09:53 52.32098 4.77855 6 ft 6 kts 42°
2026-04-30 09:53 52.32119 4.77904 6 ft 4 kts 68°
2026-04-30 09:53 52.32120 4.77949 6 ft 5 kts 92°
2026-04-30 09:54 52.32105 4.77998 8 ft 4 kts 139°
2026-04-30 09:54 52.32075 4.78007 6 ft 0 kts 177°
2026-04-30 09:55 52.32005 4.78006 6 ft 33 kts 182°
2026-04-30 09:55 52.31472 4.77957 8 ft 118 kts 183°
2026-04-30 09:55 52.30413 4.77859 29 ft 180 kts 180°
2026-04-30 09:55 52.29190 4.77679 894 ft 175 kts 181°
2026-04-30 09:56 52.27964 4.77432 1848 ft 179 kts 179°
2026-04-30 09:56 52.26773 4.77123 2948 ft 171 kts 176°
2026-04-30 09:56 52.25565 4.77445 3335 ft 190 kts 152°
2026-04-30 09:56 52.24299 4.78347 3974 ft 202 kts 151°
2026-04-30 09:57 52.22925 4.79056 4643 ft 220 kts 167°
2026-04-30 09:57 52.21295 4.78518 4842 ft 264 kts 205°
2026-04-30 09:57 52.20047 4.76234 5732 ft 283 kts 241°
2026-04-30 09:57 52.19625 4.73063 6664 ft 294 kts 269°
2026-04-30 09:58 52.19934 4.69740 7519 ft 301 kts 283°
2026-04-30 09:58 52.20491 4.66421 8357 ft 307 kts 285°
2026-04-30 09:58 52.21077 4.63044 9209 ft 311 kts 285°
2026-04-30 09:58 52.21709 4.59643 10044 ft 316 kts 291°
2026-04-30 09:59 52.24217 4.53494 10777 ft 351 kts 323°
2026-04-30 09:59 52.28539 4.48925 11658 ft 380 kts 333°
2026-04-30 10:00 52.33128 4.44584 13353 ft 387 kts 332°
2026-04-30 10:00 52.35519 4.42571 14099 ft 386 kts 343°
2026-04-30 10:01 52.40783 4.40961 15455 ft 388 kts 358°
2026-04-30 10:01 52.43478 4.40607 16112 ft 391 kts 359°
2026-04-30 10:01 52.46205 4.40280 16740 ft 395 kts 359°
2026-04-30 10:02 52.51728 4.39540 18003 ft 402 kts 359°
2026-04-30 10:02 52.54528 4.39124 18602 ft 406 kts 359°
2026-04-30 10:02 52.57354 4.38687 19137 ft 409 kts 358°
2026-04-30 10:02 52.60194 4.38238 19672 ft 412 kts 358°
2026-04-30 10:03 52.63058 4.37781 20179 ft 414 kts 358°
2026-04-30 10:03 52.65932 4.37286 20684 ft 418 kts 356°
2026-04-30 10:03 52.68804 4.36379 21185 ft 423 kts 347°
2026-04-30 10:03 52.71574 4.34610 21665 ft 432 kts 335°
2026-04-30 10:04 52.74065 4.31825 22185 ft 438 kts 321°
2026-04-30 10:04 52.76136 4.28099 22720 ft 444 kts 307°
2026-04-30 10:04 52.77664 4.23644 23253 ft 449 kts 295°
2026-04-30 10:04 52.78768 4.18791 23767 ft 453 kts 289°
2026-04-30 10:05 52.79693 4.13806 24284 ft 456 kts 287°
2026-04-30 10:05 52.80587 4.08752 24711 ft 459 kts 287°
2026-04-30 10:05 52.81504 4.03685 25217 ft 462 kts 288°
2026-04-30 10:05 52.82460 3.98593 25612 ft 466 kts 288°
2026-04-30 10:06 52.83450 3.93475 26151 ft 468 kts 288°
2026-04-30 10:06 52.84458 3.88349 26644 ft 471 kts 289°
2026-04-30 10:06 52.85479 3.83193 27132 ft 472 kts 288°
2026-04-30 10:06 52.86506 3.78013 27597 ft 475 kts 289°
2026-04-30 10:07 52.87537 3.72802 28026 ft 479 kts 288°
2026-04-30 10:07 52.88575 3.67538 28524 ft 481 kts 288°
2026-04-30 10:07 52.89615 3.62242 28884 ft 486 kts 288°
2026-04-30 10:07 52.90646 3.56971 29271 ft 490 kts 288°
2026-04-30 10:08 52.91706 3.51537 29803 ft 491 kts 288°
2026-04-30 10:08 52.92759 3.46126 30158 ft 494 kts 288°
2026-04-30 10:08 52.93795 3.40779 30603 ft 495 kts 288°
2026-04-30 10:08 52.94850 3.35327 30875 ft 499 kts 287°
2026-04-30 10:09 52.95906 3.29849 31336 ft 497 kts 287°
2026-04-30 10:09 52.96959 3.24375 31668 ft 498 kts 287°
2026-04-30 10:09 52.97996 3.18919 32111 ft 497 kts 287°
2026-04-30 10:09 52.99016 3.13471 32625 ft 494 kts 287°
2026-04-30 10:10 53.00033 3.08030 33058 ft 492 kts 287°
2026-04-30 10:10 53.01047 3.02628 33604 ft 489 kts 287°
2026-04-30 10:10 53.02064 2.97228 33830 ft 492 kts 287°
2026-04-30 10:10 53.03084 2.91816 34239 ft 490 kts 287°
2026-04-30 10:11 53.04101 2.86420 34464 ft 492 kts 287°
2026-04-30 10:11 53.05119 2.81005 34814 ft 489 kts 287°
2026-04-30 10:11 53.06129 2.75622 35197 ft 487 kts 287°
2026-04-30 10:11 53.07131 2.70263 35565 ft 484 kts 287°
2026-04-30 10:12 53.08124 2.64933 35937 ft 481 kts 287°
2026-04-30 10:12 53.09109 2.59634 36284 ft 479 kts 287°
2026-04-30 10:12 53.10094 2.54316 36386 ft 483 kts 287°
2026-04-30 10:13 53.11620 2.43410 36397 ft 484 kts 278°
2026-04-30 10:13 53.12503 2.32322 36398 ft 483 kts 275°
2026-04-30 10:14 53.13321 2.21199 36395 ft 484 kts 276°
2026-04-30 10:14 53.14630 2.04540 36398 ft 483 kts 276°
2026-04-30 10:15 53.15513 1.93446 36398 ft 483 kts 276°
2026-04-30 10:15 53.16378 1.82444 36395 ft 482 kts 276°
2026-04-30 10:16 53.17236 1.71365 36395 ft 482 kts 276°
2026-04-30 10:17 53.18504 1.54717 36387 ft 482 kts 275°
2026-04-30 10:17 53.19746 1.38108 36384 ft 481 kts 275°
2026-04-30 10:18 53.20560 1.27044 36384 ft 480 kts 275°
2026-04-30 10:19 53.21749 1.10436 36379 ft 481 kts 274°
2026-04-30 10:19 53.22484 0.99363 36378 ft 480 kts 274°
2026-04-30 10:20 53.23235 0.88307 36365 ft 479 kts 274°